Find Starlink 30865

NORAD ID: 58226 Int'l Des: 2023-170 Owner: SPXS Country: US Constellation: starlink operational
LEOCIRCULAR

現在のビュー

3D地球を読み込み中...

About Starlink 30865

Starlink 30865 (NORAD 58226) is a starlink constellation satellite (v2 mini) launched Nov 4, 2023 by SPXS of US. It operates in LEO, CIRCULAR orbit with a mass of 730.00 kg.

Starlink 30865について

説明を読み込み中...

次回通過

Passes for default location (London). Set your location on the main map for personalized predictions.

高度履歴

Loading altitude history...

軌道要素

1 58226U 23170W 26166.78427309 .00000759 00000-0 37125-4 0 9990
2 58226 43.0053 349.0274 0001642 271.6678 88.3986 15.27575568145439
Epoch: Jun 15, 2026 • Age: 24 hours

現在のステータス

高度 486.2 km
速度 7.63 km/s
衛星直下点 38.20°N, 81.69°W
打ち上げ日 Nov 4, 2023
運用期間 2.6 years
タイプ internet

技術仕様

分類 Payload
質量 730.00 kg
乾燥質量 700.00 kg
総質量 730.00 kg
長さ 0.30 m
直径 4.10 m
スパン 29.00 m
形状 Box + pan
製造者 SPXS
バスタイプ Starlink V2M
フェーズステータス In Orbit
所有者/国 SPXS/US

Most Searched